TOURFACTS.DK  
Stats and Facts from Tour de France.

Tour de France 2018 starts in 169 days
  Riders   Stages   Teams   Summits   Yearly  


 
Search by year

 2017 - St.21:
 14824 starters.
  5132 different riders.
  635 teams.
  2232 stages.
  454 restdays.
  439589.60 km.
  5653 abandonnees.


Top 3
GC
Christopher Froome86:20:55
Rigoberto Uran86:21:49
Romain Bardet86:23:15
Climb
Warren Barguil169 pt.
Primoz Roglic80 pt.
Thomas De Gendt64 pt.
Sprint
Michael Matthews359 pt.
André Greipel234 pt.
Edvald Boasson Hagen220 pt.
Youth
Simon Yates86:27:09
Louis Meintjes86:29:15
Emanuel Buchmann86:54:16
Facts from Tour de France 1975
  |   Stages.  |   Stage winners.  |   Days in yellow  |   Average speed.  |   Route.  |   Teams.  |   All riders.  |   Rookies.  |   Withdrawls.  |  

  |   GC.  |   Polka  |   Green  |   White  |   Summits. (In tour)  |   Summits. (Points)  |   Miscellaneous.  |  

Stage 13 on 10 - 07 - 1975
         Owning:    Eddy Merckx    
Pick a stage:  Pro 1a 1b 2 3 4 5 6 7 8 9a 9b 10 11 12 13 14 15 16 17 18 19 20 21 22
  AlbiSuper-Lioran | Dist: 260.00 km.
Cat: 3Côte de SalguesBELLucien Van Impe
8 points
 
Cat: 4Côte de Chaudes AiguesBELLucien Van Impe
3 points
 
Cat: 2Col de Prat-de-Bouc/Plomb du CanTalBELEddy Merckx
15 points
 
Cat: 3Super Lioran - MuratBELMichel Pollentier
8 points
 

Average speed for all riders in stage:  28,314 km./hr.
    Place:Name:Team:Time:Km/h:
BELMichel PollentierBELCarpenter Confortluxe-Flandria08:58:44  +  00:00:00=28,957 
BELEddy MerckxITAMolteni08:59:09  +  00:00:25=28,934 
BELLucien Van ImpeFRAGitane-Campagnolo08:59:10  +  00:00:26=28,934 
4 NEDJoop ZoetemelkFRAGan-Mercier-Hutchinson08:59:10  +  00:00:26=28,934 
5 ITAFrancesco MoserITAFilotex08:59:10  +  00:00:26=28,934 
6 FRABernard ThevenetFRAPeugeot-BP-Michelin08:59:10  +  00:00:26=28,934 
7 SUIJosef FuchsITAFilotex08:59:13  +  00:00:29=28,931 
8 ITAFelice GimondiITABianchi-Campagnolo08:59:14  +  00:00:30=28,930 
9 NEDHennie KuiperNLDFrisol-G.B.C.08:59:18  +  00:00:34=28,926 
10 NEDFedor Iwan Den HertogNLDFrisol-G.B.C.08:59:20  +  00:00:36=28,925 
11 ESPPedro TorresESPSuper Ser08:59:32  +  00:00:48=28,914 
12 ESPVicente LopezESPKas-Kaskol08:59:34  +  00:00:50=28,912 
13 ESPMariano MartinezFRAGitane-Campagnolo08:59:34  +  00:00:50=28,912 
14 FRAGeorges TalbourdetFRAGan-Mercier-Hutchinson08:59:39  +  00:00:55=28,908 
15 FRARaymond MartinFRAGitane-Campagnolo08:59:39  +  00:00:55=28,908 
16 FRAJean-Pierre DanguillaumeFRAPeugeot-BP-Michelin08:59:39  +  00:00:55=28,908 
17 ESPFrancisco GaldosESPKas-Kaskol08:59:39  +  00:00:55=28,908 
18 ESPAndré RomeroFRAJobo-Wolber08:59:39  +  00:00:55=28,908 
19 FRARaymond PoulidorFRAGan-Mercier-Hutchinson08:59:39  +  00:00:55=28,908 
20 ITARoberto PoggialiITAFilotex09:00:17  +  00:01:33=28,874 
21 BELTony HoubrechtsITABianchi-Campagnolo09:00:31  +  00:01:47=28,861 
22 BELJos De SchoenmaeckerITAMolteni09:00:34  +  00:01:50=28,859 
23 BELEduard JanssensITAMolteni09:00:34  +  00:01:50=28,859 
24 COLMartìn RodríguezITABianchi-Campagnolo09:00:47  +  00:02:03=28,847 
25 FRARaymond DelisleFRAPeugeot-BP-Michelin09:01:03  +  00:02:19=28,833 
26 ITAFabrizio FabbriITABianchi-Campagnolo09:01:32  +  00:02:48=28,807 
27 FRAYves HézardFRAGan-Mercier-Hutchinson09:01:37  +  00:02:53=28,803 
28 ESPJosé PesarrodonaESPKas-Kaskol09:01:42  +  00:02:58=28,798 
29 ITAMauro SimonettiITAFilotex09:01:49  +  00:03:05=28,792 
30 ESPAntonio MenendezESPKas-Kaskol09:03:36  +  00:04:52=28,698 
31 FRARégis OvionFRAPeugeot-BP-Michelin09:03:46  +  00:05:02=28,689 
32 FRAJosé CatieauFRAPeugeot-BP-Michelin09:03:49  +  00:05:05=28,686 
33 ESPSantiago LazcanoESPSuper Ser09:03:49  +  00:05:05=28,686 
34 ITARenato MarchettiITAFilotex09:05:30  +  00:06:46=28,598 
35 BELAlbert Van VlierbergheBELMiko-De Gribaldy09:06:06  +  00:07:22=28,566 
36 ITAGiacinto SantambrogioITABianchi-Campagnolo09:06:17  +  00:07:33=28,557 
37 FRAFrancis CampanerPRTSporting-Sottomayor09:06:36  +  00:07:52=28,540 
38 ESPJosé-Luis ViejoESPSuper Ser09:06:43  +  00:07:59=28,534 
39 ESPJosé CasasESPSuper Ser09:06:45  +  00:08:01=28,532 
40 BELJoseph SpruytITAMolteni09:06:47  +  00:08:03=28,530 
41 FRARobert MintkiewiczFRAGitane-Campagnolo09:06:49  +  00:08:05=28,529 
42 ITAArnaldo CaverzasiITAFilotex09:06:49  +  00:08:05=28,529 
43 BELHerman Van SpringelBELCarpenter Confortluxe-Flandria09:06:52  +  00:08:08=28,526 
44 BELLudo DelcroixITAMolteni09:06:52  +  00:08:08=28,526 
45 FRAFerdinand JulienPRTSporting-Sottomayor09:06:52  +  00:08:08=28,526 
46 ESPCarlos MeleroESPKas-Kaskol09:06:57  +  00:08:13=28,522 
47 ITAGiovanni CavalcantiITABianchi-Campagnolo09:06:59  +  00:08:15=28,520 
48 FRAPatrick PerretBELMiko-De Gribaldy09:07:17  +  00:08:33=28,504 
49 ITAPierino GavazziITAJollyceramica09:08:35  +  00:09:51=28,437 
50 ITASigfrido FontanelliITAFilotex09:08:58  +  00:10:14=28,417 
51 BELWilly TeirlinckFRAGitane-Campagnolo09:09:02  +  00:10:18=28,414 
52 PORJoaquim AgostinhoPRTSporting-Sottomayor09:09:02  +  00:10:18=28,414 
53 FRAJean-Claude MisacFRAGan-Mercier-Hutchinson09:10:17  +  00:11:33=28,349 
54 ESPLuis BalagueESPSuper Ser09:10:29  +  00:11:45=28,339 
55 FRAJean-Pierre GenetFRAGan-Mercier-Hutchinson09:14:08  +  00:15:24=28,152 
56 ITAAlessio AntoniniITAJollyceramica09:14:08  +  00:15:24=28,152 
57 FRARichard PianaroFRAJobo-Wolber09:14:08  +  00:15:24=28,152 
58 FRAHubert MathisBELMiko-De Gribaldy09:14:08  +  00:15:24=28,152 
59 BELRoger LoyschBELMiko-De Gribaldy09:14:08  +  00:15:24=28,152 
60 BELMarc DemeyerBELCarpenter Confortluxe-Flandria09:14:08  +  00:15:24=28,152 
61 BELRonald De WitteBELCarpenter Confortluxe-Flandria09:14:08  +  00:15:24=28,152 
62 BELFrans MintjensITAMolteni09:14:08  +  00:15:24=28,152 
63 BELJosé De CauwerNLDFrisol-G.B.C.09:14:08  +  00:15:24=28,152 
64 ESPJosé GrandeESPKas-Kaskol09:14:08  +  00:15:24=28,152 
65 FRABernard BourreauFRAPeugeot-BP-Michelin09:14:08  +  00:15:24=28,152 
66 BELJoseph HuysmansITAMolteni09:14:08  +  00:15:24=28,152 
67 PORFernando FerreiraPRTSporting-Sottomayor09:14:08  +  00:15:24=28,152 
68 FRASylvain VasseurESPSuper Ser09:14:08  +  00:15:24=28,152 
69 FRAJoël MillardFRAJobo-Wolber09:14:08  +  00:15:24=28,152 
70 BELWalter GodefrootBELCarpenter Confortluxe-Flandria09:14:08  +  00:15:24=28,152 
71 FRAAlain SantyFRAGitane-Campagnolo09:14:08  +  00:15:24=28,152 
72 DENOle RitterITAFilotex09:14:08  +  00:15:24=28,152 
73 ITAPietro DallaiITAFilotex09:14:08  +  00:15:24=28,152 
74 BELMarc LievensITAMolteni09:14:31  +  00:15:47=28,133 
75 FRAMichel PerinFRAGan-Mercier-Hutchinson09:14:31  +  00:15:47=28,133 
76 BELKarel RottiersITAMolteni09:15:14  +  00:16:30=28,096 
77 FRACharly RouxelFRAPeugeot-BP-Michelin09:15:17  +  00:16:33=28,094 
78 FRAJacques BoulasFRAJobo-Wolber09:15:32  +  00:16:48=28,081 
79 BELRik Van LindenITABianchi-Campagnolo09:21:15  +  00:22:31=27,795 
80 FRAAndré MolletPRTSporting-Sottomayor09:21:15  +  00:22:31=27,795 
81 MARAntoine GutierrezBELMiko-De Gribaldy09:21:15  +  00:22:31=27,795 
82 NEDGerben KarstensFRAGitane-Campagnolo09:21:15  +  00:22:31=27,795 
83 PORJosé AmaroPRTSporting-Sottomayor09:21:15  +  00:22:31=27,795 
84 FRAJoel HauvieuxFRAJobo-Wolber09:21:15  +  00:22:31=27,795 
85 ITADonato GiulianiITAJollyceramica09:21:15  +  00:22:31=27,795 
86 NEDGerard VianenFRAGan-Mercier-Hutchinson09:21:15  +  00:22:31=27,795 
87 ITASimone FraccaroITABianchi-Campagnolo09:21:15  +  00:22:31=27,795 
88 NEDGerrie KnetemannFRAGan-Mercier-Hutchinson09:21:15  +  00:22:31=27,795 
89 FRARoger LegeayFRAJobo-Wolber09:21:15  +  00:22:31=27,795 
90 FRASerge ParsaniITABianchi-Campagnolo09:21:15  +  00:22:31=27,795 
91 ENGBarry HobanFRAGan-Mercier-Hutchinson09:21:15  +  00:22:31=27,795 
92 FRAGuy LeleuFRAGitane-Campagnolo09:21:15  +  00:22:31=27,795 
93 BELAndre DoyenBELMiko-De Gribaldy09:21:15  +  00:22:31=27,795 
94 FRAMaurice Le GuillouxFRAGitane-Campagnolo09:21:15  +  00:22:31=27,795 
95 FRAClaude MagniFRAJobo-Wolber09:21:15  +  00:22:31=27,795 
96 ITALuigi CastellettiITABianchi-Campagnolo09:21:15  +  00:22:31=27,795 
97 NEDGerard KamperNLDFrisol-G.B.C.09:21:15  +  00:22:31=27,795 
98 AUSDonald AllanNLDFrisol-G.B.C.09:21:15  +  00:22:31=27,795 
99 BELHerman BeysensITAMolteni09:21:15  +  00:22:31=27,795 
100 NORKnut KnudsenITAJollyceramica09:21:15  +  00:22:31=27,795 
101 BELRené DillenFRAGitane-Campagnolo09:21:15  +  00:22:31=27,795 
102 BELFrans Van VlierbergheBELMiko-De Gribaldy09:21:15  +  00:22:31=27,795 
103 ITASandro QuintarelliITAJollyceramica09:21:15  +  00:22:31=27,795 
104 FRAGerard MoneyronBELCarpenter Confortluxe-Flandria09:21:15  +  00:22:31=27,795 
105 FRAGuy SibilleFRAPeugeot-BP-Michelin09:21:15  +  00:22:31=27,795 
106 FRAPatrick BeonFRAPeugeot-BP-Michelin09:21:15  +  00:22:31=27,795 
107 NEDHenk PrinsenNLDFrisol-G.B.C.09:21:15  +  00:22:31=27,795 
108 FRARegis DelepineBELCarpenter Confortluxe-Flandria09:21:15  +  00:22:31=27,795 
109 FRAAlain CiganaFRAJobo-Wolber09:21:57  +  00:23:13=27,760 
110 NEDBen KokenNLDFrisol-G.B.C.09:33:17  +  00:34:33=27,212 

Withdrawls: 8
 
Rider
Team
Reason
33  ITAGiovanni BattaglinITAJollyceramicaDid not start
35  ITAGiovanni Dalla BonaITAJollyceramicaDid not finish
41  ESPLuis OcañaESPSuper SerDid not start
42  ESPJulian AndianoESPSuper SerDid not finish
46  BELEddy PeelmanESPSuper SerDid not finish
47  BELRoger RosiersESPSuper SerDid not finish
128  NEDCees PriemNLDFrisol-G.B.C.Did not finish
134  FRAAndré CorbeauFRAJobo-WolberDid not finish

Todays birthdays.

1887  Marcel Godivier
1895  Louis Thuayre
1896  Léon Devos
1932  Aniceto Utset
1935  Willy Altig
1939  Sebastián Elorza
1941  René Binggeli
1948  Gerard Moneyron
1953  Patrocinio Jiménez
1954  Pierre Bazzo
1955  Serge Beucherie
1967  Antonio Politano
1969  Sergio Barbero
1977  Luca Paolini
1980  Gregory Rast
1981  Christophe Riblon
1985  Sebastian Langeveld
1990  Johan Esteban Chaves




Visits: